Location: Bachimont
(50.2714°N, 2.1423°E)
Time: 01:09:19
(UTC+00:00)

Daily predictions for brighter satellites

Satellite Brightness Start Highest point End
(mag) Time Altitude Azimuth Time Altitude Azimuth Time Altitude Azimuth
CENTAUR R/B 4.5 02:05:13 27° NNE 02:05:13 27° NNE 02:09:40 10° NE
ACS3 Solar Sail 4.0 02:00:56 10° NE 02:03:45 19° ENE 02:03:45 19° ENE
ADEOS Rocket 4.3 02:33:25 10° NNE 02:38:46 41° ENE 02:38:46 41° ENE
Cosmos 2219 Rocket 3.8 02:55:06 30° E 02:55:06 30° E 02:58:50 10° NE
CZ-2D R/B 4.5 03:13:43 10° N 03:14:23 14° N 03:14:23 14° N
USA 267 3.5 03:14:06 10° ENE 03:20:18 62° SE 03:20:18 62° SE
Cosmos 1980 Rocket 4.4 03:27:56 15° N 03:27:56 15° N 03:29:22 10° N
H-2A R/B 3.9 03:26:28 10° NNE 03:28:05 21° NNE 03:28:05 21° NNE
USA 238 DEB 4.1 03:33:04 48° N 03:33:04 48° N 03:38:43 10° NE
USA 238 4.1 03:33:10 49° N 03:33:10 49° N 03:38:50 10° NE
Cosmos 2278 Rocket 3.7 03:29:48 24° N 03:32:08 32° NE 03:37:10 10° ESE
Cosmos 2333 Rocket 3.2 03:39:30 38° N 03:39:30 38° N 03:43:07 10° NNE
ADEOS II 4.1 03:38:43 10° N 03:39:55 17° N 03:39:55 17° N
COSMOS 2455 3.1 03:45:06 57° N 03:45:06 57° N 03:50:03 10° NE
Lacrosse 5 rocket 3.9 03:46:58 14° NE 03:46:58 14° NE 03:47:30 10° NE
Cosmos 2298 Rocket 4.4 03:46:57 62° NE 03:46:57 62° NE 03:51:29 10° NNE
ACS3 Solar Sail 1.9 03:43:00 10° N 03:47:53 60° N 03:47:53 60° N
BlueWalker 3 4.3 03:53:51 19° ESE 03:53:51 19° ESE 03:54:57 10° ESE
Resurs 1-4 Rocket 4.4 03:47:38 10° N 03:48:13 13° N 03:48:13 13° N
CENTAUR R/B 4.2 03:52:18 25° NNW 03:55:25 33° NNE 04:03:03 10° ENE
Cosmos 2360 Rocket 2.7 03:59:09 47° N 03:59:09 47° N 04:03:28 10° NNE
Cosmos 2322 Rocket 2.9 03:59:32 42° N 03:59:32 42° N 04:03:39 10° NNE
USA 234 3.1 03:52:07 10° SE 03:58:37 65° SW 03:58:53 64° SW
Gbstr 26 Del rocket 4.5 03:59:16 34° SSE 03:59:57 36° SE 04:05:07 10° ENE
SL-16 R/B 3.5 04:06:02 28° NNW 04:06:02 28° NNW 04:09:27 10° NNE
Cosmos 44 Rocket 3.4 04:05:02 78° NE 04:05:05 78° NE 04:10:15 10° SE
Cosmos 1943 Rocket 2.8 04:06:17 25° NNW 04:09:23 53° NE 04:14:45 10° SE
Okean 1-7 3.6 04:13:10 49° NNE 04:13:10 49° NNE 04:16:22 10° NNE
H-2A R/B 4.3 04:08:28 10° NNE 04:11:15 42° NE 04:11:15 42° NE
ARGOS 3.0 04:09:23 10° NNE 04:14:51 84° WNW 04:16:17 51° SSW
PAYLOAD A 4.2 04:10:13 10° NNE 04:15:40 77° ESE 04:20:29 13° S
Cosmos 1908 Rocket 4.4 04:11:27 10° N 04:15:48 49° ENE 04:20:06 10° SSE
Cosmos 1140 Rocket 3.4 04:15:56 43° NNW 04:17:37 80° ENE 04:22:43 10° SSE
NOSS 2-1 (D) 4.4 04:19:05 35° E 04:19:05 35° E 04:21:23 10° ENE
Timation 2 Rocket 4.1 04:14:48 22° NNW 04:19:22 80° ENE 04:25:49 10° SE
CZ-2C R/B 2.3 04:15:11 10° NNE 04:20:12 84° WNW 04:21:33 50° SSW
Cosmos 1809 Rocket 4.3 04:17:56 10° S 04:24:04 86° W 04:30:12 10° N
ADEOS Rocket 3.5 04:19:03 10° N 04:25:08 46° WNW 04:25:40 45° WNW
NOSS 3-1 (C) 3.2 04:27:25 36° SSW 04:29:21 67° SE 04:35:03 10° NE
Iridium 4 Rocket 4.1 04:26:58 10° N 04:31:11 45° E 04:35:12 10° SSE
SJ 16-02 3.8 04:28:18 10° N 04:31:25 19° NE 04:34:31 10° E
Cosmos 2100 Rocket 3.8 04:25:26 10° NNW 04:31:35 80° W 04:37:44 10° S
Cosmos 2219 Rocket 2.4 04:36:50 47° WNW 04:37:32 50° NW 04:43:05 10° NNE
IRS-1D 4.2 04:35:19 10° NNE 04:40:13 52° E 04:45:01 10° S
SL-24 R/B - RUBIN 2 3.9 04:39:22 50° W 04:40:26 62° NW 04:45:18 10° NE
Cosmos 1707 Rocket 4.4 04:42:43 35° NNW 04:42:43 35° NNW 04:45:37 10° N
TIMED 4.3 04:40:17 43° NNW 04:41:37 87° WSW 04:45:53 10° SSE
COSMOS 2428 2.7 04:41:40 10° SSW 04:47:21 84° ESE 04:53:05 10° NNE
USA 59 Rocket -0.9 04:50:48 87° NNE 04:50:48 87° NNE 04:53:43 10° NE
SL-08 RB Rocket 3.7 04:47:20 10° N 04:51:47 53° WNW 04:53:29 33° SW
Cosmos 1459 Rocket 4.0 04:46:29 10° NNW 04:52:47 64° W 04:59:01 10° S
Cosmos 1864 Rocket 4.4 04:47:25 10° NNW 04:53:42 80° W 05:00:01 10° S
Cosmos 2322 3.6 04:50:01 15° SW 04:54:49 77° WNW 05:00:32 10° NNE
FengYun 1-2 T 4.2 04:51:13 10° NNE 04:56:48 90° W 05:02:24 10° SSW
COSMO-SKYMED 1 2.7 04:55:07 10° SSE 04:59:12 67° ENE 05:03:19 10° N
Cosmos 407 Rocket 3.3 04:54:47 12° NNW 04:59:34 87° WSW 05:04:40 10° SSE
Meteor 2-21 4.3 04:53:42 10° SSW 04:59:45 65° WNW 05:05:48 10° N
SKYMED 2 3.5 04:56:10 10° SSE 05:00:31 87° WSW 05:04:54 10° NNW
Cosmos 1727 Rocket 4.2 04:56:27 10° SSW 05:02:22 47° WNW 05:08:23 10° N
Cosmos 1725 Rocket 3.9 04:56:55 10° NNW 05:03:16 76° W 05:09:32 10° S
Cosmos 2228 Rocket 3.6 05:03:28 36° WNW 05:03:30 36° WNW 05:07:36 10° N
USA 267 3.3 04:57:13 10° ENE 05:03:40 64° NNW 05:07:39 25° W
Cosmos 1980 4.3 05:01:39 10° S 05:07:10 59° ESE 05:12:45 10° NE
H-2A R/B 3.8 05:07:07 10° NNW 05:08:34 14° NNW 05:08:34 14° NNW
Cosmos 1802 Rocket 4.0 05:04:50 10° NNW 05:11:07 61° W 05:17:17 10° S
NOSS 3-1 (A) 3.5 05:08:53 10° SSW 05:13:31 61° SE 05:19:11 10° NE
Cosmos 2233 Rocket 4.0 05:08:07 10° N 05:14:29 88° W 05:20:46 10° S
Cosmos 2278 Rocket 2.2 05:11:40 14° NW 05:16:32 58° WSW 05:22:03 10° S
Cosmos 1328 3.7 05:13:02 10° SSW 05:16:32 46° WNW 05:20:05 10° N
Cosmos 1703 Rocket 3.5 05:13:39 10° SSW 05:17:56 60° WNW 05:22:18 10° N
Cosmos 2251 Rocket 3.7 05:13:01 10° NNW 05:18:24 79° ENE 05:23:46 10° SSE
CZ-3 R/B 4.3 05:17:21 10° SSW 05:20:20 11° S 05:22:41 10° S
NOSS 2-1 (E) 2.7 05:18:52 26° WSW 05:20:34 63° NW 05:23:36 10° NE
Cosmos 1939 Rocket 3.3 05:17:32 10° N 05:21:04 34° WNW 05:23:42 16° SW
Lacrosse 5 rocket 2.2 05:20:39 22° NW 05:21:40 26° N 05:24:34 10° NE
Cosmos 2173 Rocket 4.4 05:16:27 10° NNW 05:21:57 37° W 05:27:26 10° SSW
Meteor 2-16 Rocket 4.4 05:16:15 10° SSW 05:22:20 71° WNW 05:28:29 10° N
Cosmos 2333 Rocket 3.7 05:21:32 17° NW 05:22:55 18° NNW 05:26:48 10° N
Cosmos 2237 Rocket 2.5 05:17:47 10° SSW 05:23:25 72° ESE 05:29:04 10° NNE
USA-17 4.1 05:22:08 29° NW 05:23:34 76° SW 05:26:53 10° SE
SL-08 R/B 4.4 05:19:18 10° NNW 05:25:21 64° W 05:31:25 10° S
Cosmos 2292 Rocket 3.7 05:24:07 10° SSW 05:28:23 70° WNW 05:33:57 10° N
BlueWalker 3 3.3 05:27:40 19° WSW 05:28:30 21° SW 05:31:16 10° S
USA 276 4.1 05:29:40 12° SW 05:29:41 12° SSW 05:30:45 10° S
COSMOS 2455 4.1 05:28:15 18° WNW 05:30:58 24° NNW 05:35:49 10° NNE
ACS3 Solar Sail 3.1 05:27:21 10° NNW 05:31:06 17° NW 05:32:02 17° WNW
Meteor 1-24 Rocket 3.9 05:27:32 10° SSW 05:33:07 51° WNW 05:38:35 10° N
Helios 1A Rocket 3.0 05:30:35 10° SSW 05:33:42 34° W 05:36:22 13° NW
Cosmos 2369 Rocket 3.5 05:28:57 10° NNW 05:34:14 38° NE 05:39:32 10° ESE
CZ-4 R/B 3.9 05:30:45 10° N 05:35:36 59° WNW 05:40:20 10° SSW
Cosmos 1782 Rocket 3.7 05:33:23 10° NNW 05:37:40 50° W 05:41:52 10° SSW
Cosmos 2360 Rocket 3.8 05:40:55 14° WNW 05:43:06 17° NNW 05:46:44 10° N
Cosmos 2322 Rocket 3.9 05:41:20 13° NW 05:43:30 16° NNW 05:46:56 10° N
Cosmos 2123 Rocket 4.3 05:38:01 10° SW 05:43:54 43° WNW 05:49:48 10° N
Meteor 2-5 Rocket 4.0 05:38:39 10° SW 05:44:20 48° WNW 05:50:00 10° N
NOAA 12 4.2 05:39:38 10° N 05:44:53 59° WNW 05:50:05 10° SSW
Cosmos 1420 Rocket 4.2 05:40:19 10° SSW 05:45:34 81° ESE 05:50:54 10° NNE
Gbstr 26 Del rocket 3.7 05:41:19 12° WSW 05:46:04 89° SSE 05:52:26 10° ENE
CENTAUR R/B 3.7 05:39:55 10° NW 05:47:42 58° NE 05:56:48 10° ESE
ARIANE 5 R/B 4.5 05:45:45 10° NNE 05:50:18 33° E 05:54:53 10° SSE
SL-16 R/B 4.1 05:48:18 10° NW 05:50:21 12° NNW 05:52:24 10° N
TiPS 4.4 05:48:37 10° SW 05:51:02 59° NW 05:53:18 10° NE
Cosmos 1943 Rocket 3.0 05:48:05 10° NW 05:52:50 30° WSW 05:57:32 10° SSW
Cosmos 1812 2.1 05:53:46 10° N 05:56:42 78° ENE 05:59:37 10° SSE
CZ-2C R/B 4.0 05:54:36 10° NNW 05:57:33 16° NW 06:00:31 10° W
Cosmos 1300 Rocket 4.4 05:54:17 10° NNW 05:58:02 28° W 06:01:43 10° SSW
SMAP 4.2 05:54:41 10° NNE 05:59:13 48° E 06:03:43 10° S
Cosmos 2346 Rocket 4.4 05:56:22 10° SSW 06:02:31 71° WNW 06:08:38 10° N
NOSS 2-1 (C) 3.9 06:00:51 11° W 06:03:21 24° NW 06:05:53 10° NNE
NOSS 2-1 (D) 4.1 06:04:54 11° W 06:07:22 22° NNW 06:09:47 10° NNE
SJ 16-02 1.3 06:05:43 10° NNW 06:09:59 63° WSW 06:14:13 10° S
Iridium 4 Rocket 4.3 06:07:26 10° NNW 06:10:36 20° WNW 06:13:38 10° SW
Aureole 3 Rocket 3.4 06:06:53 10° NNW 06:11:00 61° W 06:16:39 10° S
Okean 1 Rocket 4.1 06:07:04 10° N 06:11:19 48° ENE 06:15:30 10° SSE
Cosmos 2061 Rocket 4.5 06:08:00 10° NNW 06:13:39 38° W 06:19:16 10° SSW
CBERS-1 4.0 06:09:54 10° NNE 06:15:02 77° WNW 06:20:08 10° SSW
SWARM A 4.2 06:14:11 10° SSW 06:17:28 62° W 06:20:47 10° N
IRS-1D 4.4 06:14:58 10° N 06:19:03 26° WNW 06:23:06 10° WSW
Cosmos 1190 Rocket 4.5 06:14:26 10° NW 06:19:23 42° WSW 06:24:17 10° S
Cosmos 1378 Rocket 3.5 06:15:49 10° S 06:20:06 89° W 06:24:24 10° N
Cosmos 676 Rocket 4.1 06:15:17 10° NNW 06:20:30 64° WSW 06:25:38 10° S
NOSS 3-1 (C) 3.9 06:15:51 10° W 06:20:32 35° NNW 06:26:16 10° NE
SL-16 R/B 2.9 06:16:05 10° SSW 06:21:40 62° ESE 06:27:18 10° NE
In-Cosmos 22 Rocket 4.3 06:16:46 10° SSW 06:22:35 74° WNW 06:28:26 10° N
